Wetbulb
45.12 41.67 38.56 41.16 42.22 42.31 41.62 40.56 40.22 42.77 45.55 44.01 44.18 52.27 53.85 55.20 54.20 52.85 52.98 53.08 52.68 53.60 55.44 55.98 56.55 57.24 57.48 57.99 58.41 58.90 59.56 60.50 62.73 64.53 65.14 66.54 67.35 66.63 66.19 67.22 67.99 67.87 69.32 70.17
42.88 39.69 45.28 45.33 44.51 44.33 43.51 41.04 40.24 43.38 45.89 43.70 47.75 49.01 52.12 53.56 52.79 52.16 52.04 51.91 51.49 51.01 52.80 53.47 53.64 54.97 55.24 55.41 56.24 57.02 57.80 58.74 60.11 62.70 64.98 66.92 68.12 64.17 64.80 65.69 65.65 67.43 68.66 67.49
41.05 44.13 47.88 45.28 43.94 43.67 40.45 40.32 39.90 40.45 43.26 42.66 43.72 43.10 50.12 51.76 51.90 52.07 51.90 51.80 50.81 49.55 49.73 50.65 50.94 51.01 52.83 53.65 54.14 54.77 55.43 57.05 58.29 58.99 60.92 62.25 63.92 63.66 63.51 63.55 64.31 65.49 66.91 68.14
41.79 45.40 45.78 44.60 44.63 43.03 38.16 43.71 43.76 42.48 39.04 36.52 40.22 32.99 44.63 49.34 49.01 49.53 49.31 49.43 49.67 49.87 50.51 50.54 49.49 48.46 49.58 51.95 53.84 54.05 54.83 55.58 57.98 57.91 58.02 58.34 58.74 57.54 59.03 61.12 62.25 63.57 63.75 64.28
42.85 43.11 43.61 43.17 44.35 45.82 42.34 44.45 42.80 42.24 36.82 34.72 35.36 32.52 34.04 48.32 47.15 47.76 48.94 49.54 50.09 50.19 50.52 50.36 50.03 50.13 49.21 52.03 52.83 54.00 54.22 54.34 54.62 56.06 56.62 56.22 56.00 57.64 59.85 60.11 60.46 60.93 61.65 62.46
44.30 47.59 46.27 45.14 46.28 46.03 45.90 42.61 39.76 35.94 34.29 30.35 33.98 34.48 33.75 43.99 46.86 48.11 50.30 50.52 51.14 51.02 51.18 51.41 51.87 51.61 51.77 52.31 52.42 52.49 52.09 51.72 52.21 52.39 52.96 54.66 54.78 54.92 55.14 55.96 56.82 58.09 59.35 60.66
43.81 44.37 47.02 48.02 43.60 44.64 42.51 37.37 31.11 30.80 28.81 30.20 35.68 35.90 36.25 46.28 49.88 50.09 49.93 50.38 51.06 51.56 50.81 50.47 50.51 50.88 50.55 50.25 50.90 51.05 48.80 47.91 48.77 49.49 50.63 51.19 51.25 51.43 50.88 51.65 52.40 52.79 53.96 55.44
38.32 37.68 44.26 47.77 43.25 40.39 38.45 37.28 32.14 27.46 26.82 30.32 38.04 35.66 40.47 49.47 51.25 51.17 51.39 51.00 51.55 51.17 50.35 49.69 50.21 50.81 50.57 50.66 49.90 48.60 47.10 46.83 47.59 47.99 48.44 49.29 50.17 50.12 50.08 49.87 50.44 50.59 50.92 52.16
37.83 39.29 46.64 47.87 46.73 45.03 39.26 35.74 37.37 33.28 31.03 29.48 33.15 40.43 46.57 49.49 49.47 49.96 49.94 50.26 50.23 50.42 49.85 49.57 49.82 50.26 49.99 49.14 49.06 47.61 47.18 47.24 47.75 48.52 48.57 49.10 49.30 49.71 49.76 49.91 49.90 50.55 51.00 53.27
41.52 36.71 43.97 46.75 46.77 44.99 40.94 42.52 34.37 31.73 26.94 25.70 30.22 34.77 37.48 44.80 46.98 48.69 48.70 48.92 49.24 49.41 49.45 49.34 49.44 49.40 49.19 47.96 47.26 47.16 47.48 47.28 47.85 48.08 48.55 49.31 49.84 50.30 49.86 50.47 49.98 49.99 50.64 51.46
41.22 38.23 39.62 42.60 40.34 39.65 39.43 37.19 36.12 34.27 32.26 27.73 25.86 31.48 42.49 46.66 48.19 47.98 49.01 50.50 49.64 49.13 49.79 49.44 49.41 49.12 48.78 48.30 46.32 46.33 46.76 46.36 47.39 47.92 48.49 48.58 48.52 49.60 49.28 49.40 50.10 50.13 50.15 50.88
42.07 37.76 34.70 38.37 44.43 45.82 42.23 38.59 36.40 31.54 30.59 31.89 30.82 31.80 42.51 46.75 49.14 49.72 49.86 51.32 51.29 50.13 49.84 49.73 49.82 49.97 48.50 47.99 47.09 46.61 46.64 46.52 47.59 47.50 47.65 48.44 48.92 48.86 47.93 48.22 48.78 49.32 49.27 49.68
42.67 35.48 30.41 33.71 39.56 42.84 40.63 41.70 39.51 35.63 33.23 31.05 27.87 31.23 44.23 46.18 46.22 47.71 49.27 49.12 51.59 50.45 49.76 49.39 49.66 49.92 48.79 47.66 47.93 47.53 46.89 46.96 47.31 47.54 48.29 47.91 47.87 47.56 46.43 46.90 47.62 48.02 48.76 48.83
46.50 36.43 33.87 30.29 34.18 38.66 37.71 41.00 40.65 36.94 30.92 32.19 32.55 35.37 40.74 41.65 42.80 44.22 43.63 44.74 46.39 50.13 49.52 49.03 49.12 49.35 49.12 49.23 48.84 48.77 47.43 47.87 48.13 48.74 48.84 48.28 47.38 47.33 47.58 47.68 47.93 48.01 48.58 48.80
39.49 34.36 36.67 37.87 40.75 41.51 40.22 40.75 40.60 37.57 37.13 34.42 36.63 35.60 37.72 39.07 40.63 42.22 47.54 49.25 50.11 50.33 49.30 49.18 49.17 48.91 49.74 49.85 49.99 49.59 48.87 48.90 49.10 49.46 48.64 48.91 47.71 47.95 48.01 48.05 47.58 48.53 49.20 50.04
39.65 34.65 38.40 36.76 42.17 41.48 39.50 41.08 40.95 40.76 40.33 37.43 37.34 33.64 40.56 45.50 46.93 47.65 48.65 50.07 50.07 50.70 51.46 50.05 50.37 50.53 50.79 51.37 51.18 52.78 52.86 51.06 49.47 49.19 49.89 52.01 51.41 50.47 49.48 48.48 47.83 48.29 48.73 47.98
38.67 37.11 34.59 32.47 39.59 38.78 33.89 37.62 39.94 39.52 39.82 36.59 32.88 36.56 42.96 44.43 46.24 46.19 47.29 48.57 49.79 50.78 50.69 50.94 50.59 50.89 50.95 51.27 52.83 52.14 52.44 53.13 52.22 51.71 50.63 50.82 49.67 49.14 48.98 48.35 47.74 46.75 46.84 47.68
38.05 36.75 34.77 31.61 34.33 27.98 37.74 43.66 44.28 41.71 42.03 41.59 41.75 43.44 44.73 44.93 45.24 46.57 46.94 47.90 48.69 49.91 51.34 51.20 50.99 50.99 50.81 51.00 51.14 51.51 51.85 50.76 49.38 49.32 50.66 50.48 49.79 49.08 49.23 47.54 47.00 47.80 47.58 46.66
41.10 37.03 32.41 30.47 30.07 34.72 39.24 41.92 41.97 39.03 38.70 43.22 41.98 43.82 45.13 46.31 45.77 45.40 48.43 47.88 47.14 47.16 48.77 48.25 48.68 48.11 47.41 48.30 49.07 49.23 48.93 49.27 50.70 49.82 49.72 49.32 47.58 46.33 47.07 45.81 46.94 46.47 45.12 44.14
40.65 38.67 35.23 30.25 27.72 27.61 36.70 44.74 46.07 43.18 34.12 44.62 43.40 42.72 43.14 43.07 35.92 39.16 48.09 47.96 46.76 47.61 47.82 47.02 46.55 46.68 46.45 46.45 47.99 47.25 48.26 48.34 47.84 47.46 46.90 46.81 47.69 46.51 46.72 45.11 44.00 44.19 43.97 44.82
34.42 34.19 31.76 28.44 27.12 33.68 41.28 46.55 46.78 33.12 34.07 44.22 43.83 42.87 41.59 40.20 40.78 43.84 48.09 47.06 46.67 46.35 46.42 47.27 46.63 48.32 49.03 48.58 46.81 47.40 46.15 45.38 46.16 46.87 47.09 46.81 45.13 44.23 43.91 43.25 43.13 43.18 43.48 42.57
34.52 31.60 30.44 30.03 26.67 29.32 44.79 45.09 38.57 40.08 41.76 42.35 41.85 41.43 41.02 43.01 45.66 46.58 46.67 46.31 46.72 45.87 46.67 48.21 46.63 45.90 44.48 45.51 44.20 43.54 43.59 45.27 46.06 45.44 44.78 43.91 42.95 43.64 44.45 42.20 42.22 42.30 41.36 40.98
34.14 36.93 35.01 35.38 34.77 40.51 43.85 42.60 44.27 44.45 42.85 42.11 42.52 43.54 45.59 45.92 45.47 46.22 45.57 45.07 44.81 44.19 45.56 45.94 43.16 42.63 42.98 43.43 44.97 43.85 44.66 46.45 45.94 43.75 42.77 41.73 41.22 42.16 42.42 41.58 41.07 40.78 40.20 39.81
38.13 41.17 37.83 37.74 39.50 41.49 43.33 43.42 44.61 43.53 42.74 43.42 44.87 45.07 45.75 44.96 45.89 45.06 44.52 44.19 43.94 44.08 44.20 42.48 42.20 41.48 41.37 42.66 42.53 41.61 43.53 44.46 42.94 41.34 41.01 40.31 39.66 40.68 40.45 41.22 41.32 40.42 40.17 41.29
38.75 38.59 37.55 37.26 40.12 41.48 42.77 43.20 43.80 43.91 44.60 45.42 45.96 45.92 45.90 45.89 44.68 44.06 43.53 43.19 43.37 42.65 42.07 41.95 42.69 42.77 42.78 43.20 43.19 41.82 43.94 42.95 41.03 40.26 40.10 38.96 39.07 37.96 38.81 39.81 41.55 44.08 44.64 43.40
39.93 38.09 35.97 35.14 41.35 39.97 40.35 43.08 44.82 43.65 44.60 46.08 46.09 45.35 45.82 45.43 43.94 42.76 41.86 41.75 40.34 41.51 43.41 43.13 43.72 43.37 43.79 43.89 42.75 43.85 44.16 43.63 39.99 39.23 38.94 37.84 37.59 37.84 40.27 42.49 43.81 42.99 41.96 40.83
MSLP
1009.78 1010.54 1010.69 1010.67 1010.62 1010.58 1010.94 1010.93 1010.87 1010.53 1010.33 1011.21 1013.22 1015.44 1016.71 1017.35 1017.56 1018.07 1018.74 1019.07 1019.15 1018.95 1018.79 1018.24 1017.79 1017.63 1017.67 1017.46 1017.15 1016.58 1016.25 1016.03 1015.21 1015.01 1014.92 1014.80 1015.07 1015.21 1015.39 1015.22 1014.93 1014.81 1014.58 1013.95
1010.37 1010.40 1009.78 1009.95 1010.45 1010.72 1010.82 1011.02 1011.39 1011.15 1011.23 1012.14 1014.75 1016.68 1017.81 1018.46 1018.91 1019.17 1019.56 1019.98 1020.05 1020.08 1019.80 1019.50 1019.17 1018.92 1018.89 1018.40 1017.63 1016.96 1016.85 1016.45 1016.30 1016.29 1016.03 1015.64 1015.29 1015.58 1015.56 1015.34 1015.07 1014.86 1014.58 1014.51
1010.14 1009.54 1009.27 1009.78 1010.45 1010.72 1011.32 1011.43 1011.72 1012.00 1012.25 1012.98 1014.49 1017.15 1018.40 1019.56 1019.91 1020.41 1020.69 1020.88 1021.12 1021.34 1021.23 1020.94 1020.54 1020.30 1019.99 1019.10 1018.36 1018.13 1017.79 1017.57 1017.14 1016.64 1016.35 1016.08 1015.76 1015.75 1016.03 1015.94 1015.80 1015.46 1015.03 1014.45
1009.75 1009.16 1009.29 1009.67 1010.23 1010.80 1011.44 1011.65 1012.04 1012.66 1013.40 1014.24 1014.92 1017.48 1018.78 1019.75 1020.72 1021.28 1021.47 1021.61 1021.72 1021.64 1021.67 1021.48 1021.25 1020.96 1020.62 1019.71 1019.16 1018.78 1018.32 1018.11 1017.87 1017.50 1017.26 1017.18 1017.33 1017.34 1017.21 1016.89 1016.39 1016.05 1015.42 1014.96
1009.78 1009.48 1009.59 1009.92 1010.30 1010.71 1011.45 1011.93 1012.81 1013.45 1014.58 1015.40 1016.21 1017.56 1018.83 1019.64 1020.47 1020.85 1021.16 1021.46 1021.90 1021.84 1021.77 1021.79 1021.60 1021.20 1020.52 1019.70 1019.57 1019.33 1019.17 1019.11 1018.89 1018.68 1018.67 1018.53 1018.32 1018.16 1017.96 1017.73 1017.21 1016.89 1016.31 1015.87
1009.96 1009.55 1009.75 1009.97 1010.52 1010.87 1011.51 1012.52 1013.80 1015.02 1015.85 1016.89 1016.69 1017.46 1018.19 1018.93 1018.91 1020.04 1020.64 1021.05 1021.50 1021.83 1021.84 1021.53 1021.06 1020.57 1020.27 1020.21 1020.15 1020.02 1019.91 1019.90 1019.59 1019.47 1019.50 1019.31 1019.21 1019.07 1018.80 1018.47 1017.97 1017.72 1017.24 1016.74
1010.71 1010.61 1010.24 1010.21 1010.91 1011.47 1012.31 1013.97 1015.63 1016.75 1017.38 1017.46 1016.92 1017.37 1017.05 1017.35 1017.78 1018.47 1019.17 1019.74 1020.21 1020.47 1020.58 1020.51 1020.49 1020.62 1020.72 1020.56 1020.30 1020.30 1020.28 1020.38 1020.23 1020.19 1020.17 1019.99 1019.71 1019.43 1019.37 1019.23 1018.91 1018.39 1017.96 1017.55
1011.83 1011.61 1011.01 1010.74 1011.35 1012.20 1013.42 1014.75 1016.42 1017.69 1018.75 1018.07 1017.32 1017.37 1016.93 1017.00 1017.36 1017.81 1018.47 1019.11 1019.66 1019.99 1020.16 1020.35 1020.48 1020.57 1020.69 1020.73 1020.65 1020.46 1020.49 1020.72 1020.77 1020.67 1020.53 1020.39 1020.24 1020.02 1019.78 1019.55 1019.30 1018.93 1018.47 1017.94
1012.44 1012.35 1011.68 1011.40 1011.57 1012.31 1014.06 1015.25 1016.37 1017.73 1019.04 1019.21 1017.98 1017.68 1017.25 1017.33 1017.73 1018.20 1018.66 1019.09 1019.31 1019.54 1019.92 1020.21 1020.28 1020.47 1020.77 1020.74 1020.77 1020.82 1020.97 1020.99 1020.83 1020.94 1020.73 1020.60 1020.46 1020.35 1020.26 1019.94 1019.58 1019.22 1018.76 1018.23
1012.82 1013.29 1013.07 1012.43 1012.31 1013.17 1013.91 1015.30 1016.84 1018.44 1019.69 1019.90 1018.65 1018.05 1017.43 1017.47 1017.59 1018.03 1018.43 1018.54 1018.63 1019.07 1019.50 1019.83 1019.86 1020.20 1020.52 1020.71 1021.02 1021.17 1021.19 1021.17 1021.04 1020.98 1020.77 1020.65 1020.56 1020.43 1020.29 1020.09 1019.90 1019.56 1019.07 1018.56
1013.17 1013.95 1014.52 1013.97 1014.01 1014.41 1014.98 1015.85 1017.32 1018.56 1019.59 1019.99 1019.45 1017.99 1016.26 1016.26 1016.63 1017.13 1017.44 1017.47 1017.79 1018.21 1018.56 1019.26 1019.64 1020.24 1020.42 1020.81 1021.09 1021.20 1021.20 1021.16 1020.97 1020.82 1020.82 1020.72 1020.61 1020.46 1020.29 1020.12 1019.90 1019.63 1019.29 1018.88
1014.23 1015.31 1015.82 1015.54 1014.99 1014.93 1015.28 1016.14 1017.36 1019.03 1019.86 1019.97 1019.51 1017.53 1015.87 1015.71 1015.93 1016.39 1016.68 1016.93 1017.12 1017.67 1018.49 1019.20 1019.61 1019.97 1020.41 1020.74 1020.87 1020.99 1020.87 1020.90 1020.86 1020.80 1020.76 1020.66 1020.60 1020.45 1020.30 1020.13 1019.97 1019.76 1019.48 1019.09
1014.41 1016.37 1016.98 1016.54 1016.18 1015.70 1016.03 1016.63 1017.48 1018.67 1019.31 1019.57 1019.58 1017.64 1015.88 1015.68 1015.97 1016.16 1016.58 1016.91 1016.99 1017.44 1018.24 1018.94 1019.45 1019.88 1020.10 1020.44 1020.51 1020.54 1020.59 1020.56 1020.44 1020.55 1020.55 1020.42 1020.38 1020.37 1020.20 1019.96 1019.75 1019.66 1019.53 1019.29
1014.62 1016.81 1017.31 1017.34 1017.03 1016.95 1016.98 1017.11 1017.53 1018.44 1019.40 1019.28 1018.79 1017.70 1016.61 1016.33 1016.33 1016.22 1016.46 1016.57 1016.61 1017.11 1017.87 1018.48 1019.16 1019.54 1019.74 1019.93 1020.02 1020.07 1020.02 1020.11 1020.27 1020.31 1020.22 1020.33 1020.10 1019.98 1019.91 1019.79 1019.61 1019.49 1019.32 1019.19
1015.72 1017.28 1017.55 1017.45 1017.25 1017.16 1017.21 1017.25 1017.46 1018.20 1018.38 1018.73 1018.10 1017.96 1017.34 1017.02 1016.77 1016.84 1016.89 1016.98 1017.18 1017.51 1017.95 1018.38 1018.86 1019.35 1019.46 1019.65 1019.70 1019.86 1020.09 1020.04 1020.08 1020.18 1020.05 1019.77 1019.63 1019.49 1019.39 1019.39 1019.46 1019.28 1019.17 1019.06
1016.68 1017.69 1017.86 1018.01 1017.53 1017.39 1017.33 1017.13 1017.11 1017.11 1017.38 1017.60 1017.70 1017.89 1017.77 1017.67 1017.37 1017.52 1017.67 1017.68 1017.89 1018.03 1018.13 1018.32 1018.67 1018.97 1019.06 1019.15 1019.51 1019.75 1019.74 1019.72 1019.70 1019.64 1019.41 1019.22 1019.20 1019.16 1019.01 1018.95 1019.27 1019.16 1019.06 1019.10
1017.13 1018.11 1019.08 1019.06 1018.33 1017.99 1017.66 1016.71 1016.72 1016.74 1016.78 1017.01 1017.61 1017.75 1018.04 1018.35 1018.19 1018.30 1018.45 1018.43 1018.49 1018.55 1018.59 1018.69 1018.93 1019.12 1019.19 1019.32 1019.45 1019.66 1019.65 1019.32 1019.06 1019.02 1019.04 1019.10 1019.28 1019.30 1019.53 1019.06 1019.00 1019.02 1019.17 1019.07
1017.56 1018.64 1019.38 1020.02 1019.40 1018.87 1017.06 1016.45 1016.37 1016.94 1017.39 1017.30 1017.55 1018.07 1018.42 1018.50 1018.64 1018.56 1018.57 1018.58 1018.69 1018.73 1018.84 1018.93 1019.02 1019.10 1019.16 1019.26 1019.47 1019.55 1019.48 1019.49 1019.43 1019.42 1019.13 1019.27 1019.47 1019.55 1019.17 1019.67 1019.61 1019.10 1018.94 1018.99
1016.79 1018.44 1020.19 1020.52 1020.07 1018.68 1017.06 1016.83 1016.53 1016.64 1017.97 1017.86 1018.07 1018.47 1018.75 1018.96 1019.14 1019.31 1019.18 1019.13 1019.11 1019.22 1019.44 1019.66 1019.73 1019.78 1019.80 1019.64 1019.69 1019.57 1019.82 1020.03 1019.98 1019.69 1020.08 1019.67 1019.79 1019.91 1019.80 1019.83 1019.63 1019.31 1019.13 1018.96
1017.35 1017.82 1019.19 1020.74 1020.44 1019.04 1016.97 1016.05 1016.00 1016.44 1017.85 1017.92 1018.24 1018.53 1018.86 1019.33 1019.82 1019.93 1019.47 1019.63 1019.87 1019.83 1019.90 1019.96 1020.01 1020.11 1020.17 1020.28 1020.11 1020.11 1020.01 1020.11 1020.40 1020.30 1020.46 1020.28 1020.07 1020.06 1020.00 1019.98 1019.89 1019.31 1019.18 1019.01
1017.86 1018.84 1019.40 1020.10 1019.66 1018.08 1016.33 1015.82 1015.82 1016.94 1017.62 1017.57 1018.04 1018.41 1018.90 1019.41 1019.41 1019.51 1019.80 1020.16 1020.28 1020.27 1020.27 1020.34 1020.41 1020.44 1020.65 1020.78 1020.93 1020.86 1020.88 1020.61 1020.97 1020.77 1020.52 1020.51 1020.58 1020.37 1020.21 1020.03 1019.79 1019.34 1019.08 1019.00
1017.15 1018.20 1019.10 1019.74 1019.29 1017.59 1015.74 1015.88 1016.31 1016.76 1017.16 1017.50 1018.03 1018.43 1018.91 1019.23 1019.63 1019.81 1020.10 1020.53 1020.71 1020.80 1020.79 1020.74 1020.89 1021.10 1021.00 1020.84 1020.81 1020.99 1020.97 1021.02 1021.01 1020.93 1020.97 1020.93 1020.62 1020.42 1020.21 1020.05 1019.74 1019.38 1019.29 1019.23
1016.64 1016.41 1017.18 1017.75 1017.10 1016.29 1015.70 1015.67 1015.86 1016.29 1016.94 1017.66 1018.09 1018.48 1018.92 1019.52 1019.84 1020.11 1020.48 1020.86 1021.09 1021.18 1021.14 1021.16 1021.33 1021.44 1021.40 1021.36 1021.28 1021.26 1021.24 1021.15 1021.23 1021.22 1021.22 1021.17 1020.85 1020.74 1020.52 1020.24 1019.93 1019.69 1019.53 1019.22
1016.06 1015.99 1016.58 1017.04 1016.57 1016.13 1015.84 1015.76 1015.88 1016.23 1016.88 1017.39 1017.90 1018.48 1019.15 1019.64 1020.02 1020.49 1020.83 1021.12 1021.29 1021.42 1021.49 1021.49 1021.65 1021.81 1021.83 1021.67 1021.56 1021.54 1021.47 1021.45 1021.48 1021.54 1021.59 1021.53 1021.35 1021.07 1020.69 1020.34 1020.09 1019.88 1019.64 1019.30
1016.17 1016.00 1016.49 1016.85 1016.61 1016.38 1016.18 1016.05 1016.17 1016.65 1017.05 1017.65 1018.25 1018.65 1019.09 1019.65 1020.29 1020.68 1021.06 1021.28 1021.46 1021.58 1021.70 1021.79 1021.87 1021.90 1021.90 1021.83 1021.66 1021.61 1021.55 1021.57 1021.73 1021.80 1021.89 1021.85 1021.65 1021.39 1021.00 1020.53 1020.26 1019.88 1019.65 1019.56
1015.78 1015.81 1016.18 1016.18 1015.87 1015.97 1016.25 1016.25 1016.41 1016.99 1017.53 1017.81 1018.25 1019.01 1019.39 1019.73 1020.35 1020.76 1021.15 1021.31 1021.49 1021.66 1021.76 1021.88 1021.96 1021.96 1021.96 1021.97 1021.95 1021.86 1021.77 1021.66 1021.86 1021.98 1022.04 1021.99 1021.84 1021.57 1021.21 1020.74 1020.18 1019.91 1019.64 1019.53
Wind_Speed
4 6 2 6 7 3 3 2 3 5 7 8 8 10 7 6 10 11 10 8 8 10 9 11 13 12 10 9 10 11 12 11 9 5 4 3 4 4 5 6 7 7 5 6
7 2 7 3 4 6 5 4 4 4 6 9 9 9 8 7 4 6 8 6 6 5 9 9 10 10 9 8 9 12 12 12 9 6 2 2 2 3 3 4 7 8 5 4
6 5 1 4 3 8 4 6 2 2 4 6 7 4 5 5 7 7 7 4 3 5 5 4 4 5 7 7 9 9 9 10 10 11 6 4 3 4 3 6 6 7 7 6
3 2 2 4 4 5 3 3 4 2 5 2 4 4 3 4 4 4 5 5 5 6 5 4 4 3 2 4 6 7 9 10 10 10 9 9 6 5 4 5 6 7 10 10
4 1 3 3 2 4 5 3 2 2 4 4 3 5 1 5 6 5 5 7 7 7 7 7 7 6 2 6 6 6 8 9 9 9 7 5 6 4 4 4 6 7 8 9
2 4 3 5 3 2 3 3 6 5 4 2 4 6 5 8 8 6 5 8 9 9 8 7 5 4 5 4 5 6 7 7 8 8 8 7 6 6 5 6 6 5 4 6
5 4 5 4 4 6 8 7 5 6 6 6 2 2 8 2 10 11 12 9 8 6 6 5 5 5 4 5 5 5 6 7 7 7 7 7 7 7 6 6 5 7 5 4
4 4 3 1 2 6 4 6 6 4 3 6 3 3 5 4 4 3 5 5 6 7 6 6 5 5 5 4 3 5 7 7 7 6 6 5 6 4 4 4 4 4 3 4
5 1 5 6 2 4 3 1 3 6 2 2 3 1 4 2 1 3 5 6 9 9 8 8 7 6 6 5 4 4 3 3 5 4 4 5 5 6 4 6 4 3 5 5
5 4 3 4 5 6 3 5 3 4 3 5 4 3 5 7 10 7 8 11 11 7 9 8 8 7 4 4 3 3 2 2 1 2 2 3 4 4 5 5 6 6 6 6
4 5 4 2 2 3 4 2 6 5 5 5 2 7 6 14 14 15 14 14 11 10 10 8 6 5 5 4 4 4 3 3 1 2 2 2 3 3 3 4 5 5 5 6
2 6 2 3 5 5 4 3 4 6 4 2 3 8 4 7 11 12 14 13 11 7 5 4 6 7 6 7 6 7 5 5 5 3 2 3 3 3 3 3 4 5 5 5
6 2 3 7 7 6 5 3 4 4 3 5 6 8 2 4 5 10 9 6 8 5 6 7 6 7 7 7 7 7 6 7 6 4 4 4 4 5 5 4 3 3 5 6
9 4 7 8 5 3 2 4 2 4 2 3 6 7 9 6 6 2 4 6 6 7 8 7 7 7 7 7 7 7 7 6 5 5 4 6 6 5 5 5 5 4 4 5
6 5 4 4 4 3 3 5 5 6 6 6 6 5 4 5 4 4 4 6 7 4 5 6 6 6 7 7 6 5 3 4 5 6 5 8 5 6 6 5 3 3 3 3
2 2 2 1 3 0 4 8 10 12 7 6 6 2 2 4 4 8 6 6 6 5 5 2 6 7 9 8 6 2 4 5 5 6 7 5 5 5 4 3 4 1 3 4
4 7 4 4 1 4 7 6 6 1 4 4 5 6 1 3 6 4 5 5 5 3 2 2 1 2 2 2 2 3 5 5 5 4 1 4 4 6 7 5 3 1 3 3
6 6 3 3 3 3 8 2 6 9 4 6 7 5 3 3 2 3 1 4 2 1 1 2 3 3 2 1 3 4 4 4 4 5 6 6 4 4 6 5 5 2 1 2
5 6 3 5 5 5 4 5 6 4 2 2 6 6 5 4 3 4 2 1 3 1 2 3 4 4 5 6 3 6 6 4 5 6 3 5 5 5 5 5 6 5 3 3
6 5 6 4 5 7 7 4 2 4 1 7 6 6 7 5 1 5 4 2 3 4 3 4 5 4 6 5 4 4 4 5 4 5 5 4 5 4 4 5 6 3 2 4
4 3 7 3 4 7 6 5 1 4 8 7 7 6 7 5 5 2 6 4 3 3 5 3 3 4 4 4 3 5 4 6 3 3 4 4 5 5 4 5 4 4 4 4
7 7 5 4 3 7 7 2 8 7 2 6 5 5 4 3 5 5 6 6 4 3 1 4 5 5 5 4 6 5 5 3 3 4 5 5 6 5 5 5 5 4 5 5
1 7 7 8 8 5 2 4 3 5 7 5 6 4 7 6 5 7 5 5 3 2 3 3 6 5 4 3 3 3 2 3 3 4 5 6 6 6 5 5 6 3 4 4
3 2 4 4 3 4 5 4 5 6 6 6 6 6 6 6 6 5 5 4 2 2 2 3 5 3 1 4 4 2 1 2 4 4 5 5 5 6 6 4 4 3 3 4
4 2 3 2 3 4 3 3 5 5 6 6 5 5 8 7 5 5 4 3 1 2 3 3 2 1 2 1 1 1 1 1 2 2 4 5 4 5 5 5 3 3 1 2
4 6 5 6 8 5 5 6 5 8 7 9 8 5 4 6 7 5 4 4 5 5 3 3 2 3 4 3 4 3 3 1 1 4 4 4 4 4 4 4 4 4 5 4
Wind_Direction
354 59 209 222 205 163 149 118 80 329 340 76 98 98 87 76 70 80 78 65 40 25 355 0 5 7 8 17 18 21 22 8 20 10 359 12 54 44 37 32 28 4 322 351
15 250 234 233 93 105 81 98 344 310 360 92 105 80 55 37 30 79 105 92 70 16 356 351 355 358 354 352 13 28 22 20 28 21 343 334 7 79 58 27 22 1 44 37
172 241 154 138 108 91 28 111 82 123 343 55 112 101 111 46 63 65 72 88 114 175 195 273 326 331 319 4 20 24 23 16 22 16 25 13 17 29 20 22 31 13 351 338
205 299 124 102 94 127 107 189 132 90 60 217 49 250 140 153 139 142 138 144 186 194 200 215 236 261 257 43 35 29 28 21 22 16 26 36 47 33 354 2 7 5 4 2
264 98 106 93 138 126 190 150 76 122 119 101 342 99 212 153 199 191 183 174 186 192 183 185 198 194 152 66 52 48 45 35 23 23 21 27 33 16 5 359 8 4 355 354
290 345 126 157 59 38 108 78 55 61 100 59 238 138 243 192 188 154 204 201 186 179 176 175 166 106 65 54 65 64 63 42 33 30 21 30 41 27 23 7 13 359 345 351
6 348 327 94 77 20 67 54 350 353 8 219 245 66 244 178 165 171 191 199 202 192 182 171 138 117 101 83 55 55 51 49 49 53 37 26 27 29 31 22 10 6 359 355
142 324 358 72 126 150 71 130 150 239 236 270 292 233 277 193 188 173 176 179 188 203 203 200 181 164 138 120 87 64 60 51 39 53 52 47 49 41 31 23 8 360 357 337
137 233 330 36 89 104 163 69 173 104 5 16 238 355 345 102 215 172 202 196 215 211 202 198 193 189 170 147 109 95 84 87 75 44 44 40 32 34 22 10 4 355 350 347
189 111 347 328 40 28 87 156 70 8 220 263 296 255 227 203 213 206 216 221 231 216 205 204 199 182 165 128 131 167 169 114 76 51 36 37 17 12 4 7 9 6 357 358
109 100 276 5 78 153 356 20 51 116 143 183 272 268 213 205 197 203 216 224 226 219 210 201 190 168 155 154 178 203 186 168 226 273 307 10 4 348 351 5 352 359 352 357
48 121 132 245 296 294 191 129 125 126 235 223 153 274 292 220 202 194 218 224 231 229 205 196 180 168 171 192 199 211 191 197 233 249 272 298 317 326 336 355 341 343 356 343
178 35 45 352 354 360 61 39 107 119 78 203 140 262 328 181 198 216 232 258 251 214 153 167 190 188 185 195 208 211 211 220 223 234 256 275 271 278 281 287 289 313 326 330
88 111 154 191 190 178 307 329 4 119 117 231 228 274 300 323 268 196 209 257 242 182 178 183 194 198 190 201 210 212 221 222 236 238 256 276 262 246 263 270 289 314 315 319
104 140 164 169 193 202 225 269 270 196 212 190 255 223 297 310 1 65 70 75 61 40 202 200 207 200 200 210 216 229 236 234 240 253 262 262 279 275 253 253 275 289 323 330
4 166 108 167 215 141 280 277 271 262 231 233 221 176 308 334 92 70 70 75 64 31 20 166 192 194 207 213 205 209 260 267 226 256 255 278 306 313 302 273 268 25 48 332
116 131 99 239 298 24 317 228 249 318 37 168 165 197 145 72 78 96 99 100 117 117 80 23 346 251 271 183 170 278 295 303 297 254 65 59 28 37 5 51 87 36 345 346
133 109 107 183 61 221 241 307 114 106 29 54 85 116 159 132 61 45 2 128 119 162 217 216 209 221 274 317 302 292 331 344 40 38 67 60 51 14 45 347 334 340 217 298
156 127 122 147 191 290 288 155 167 151 226 266 132 143 150 146 64 348 320 276 166 192 49 28 40 47 45 47 29 91 59 28 20 73 340 55 35 6 2 347 330 311 311 288
85 61 124 145 163 216 229 262 127 121 238 202 167 177 180 147 92 254 193 90 50 83 104 104 82 71 60 26 47 64 57 59 33 29 15 16 14 352 339 325 297 272 281 286
104 58 167 143 198 281 225 231 11 164 235 167 174 172 161 174 196 188 121 112 137 142 138 126 95 75 57 30 32 50 62 70 26 4 17 12 355 335 315 298 289 307 332 342
158 150 178 101 104 270 189 123 166 202 155 145 146 154 140 143 136 139 136 153 157 155 38 23 31 26 17 66 84 60 47 357 7 23 13 3 358 355 349 350 337 5 29 28
250 175 178 166 210 233 238 182 115 143 140 155 143 160 150 140 162 167 174 157 169 46 20 39 96 88 48 59 74 76 27 31 21 21 16 3 352 351 346 353 353 12 7 13
314 145 125 97 247 207 174 115 140 139 147 153 159 152 161 158 169 150 138 157 140 41 81 123 107 100 34 6 21 15 31 47 36 18 354 341 352 341 339 340 346 349 340 335
207 77 130 58 30 58 25 99 138 118 115 116 123 148 168 155 161 151 138 134 120 76 65 89 77 14 354 319 6 321 173 88 41 355 347 350 342 337 327 317 286 315 311 339
182 178 158 217 202 155 195 192 170 140 160 166 142 133 147 162 150 130 125 137 131 121 121 92 51 20 359 32 41 10 321 175 40 350 348 335 342 333 315 316 338 286 357 67